Location: Newark
(52.0267°N, 0.2640°W)
Time: 17:02:27
(UTC+00:00)

Envisat - Visible Passes

Search period start: 25 February 2021 00:00
Search period end: 07 March 2021 00:00
Orbit: 764 x 766 km, 98.1° (Epoch: 25 February)

Date Brightness Start Highest point End Pass type
(mag) Time Alt. Az. Time Alt. Az. Time Alt. Az.
25 Feb 4.2 05:21:59 10° NNE 05:26:53 45° E 05:31:44 10° S visible
25 Feb 6.3 18:24:19 10° WSW 18:26:56 14° W 18:29:34 10° NW visible
26 Feb 5.4 04:45:41 10° NE 04:49:46 23° E 04:53:47 10° SE visible
27 Feb 6.2 04:10:32 10° ENE 04:12:24 12° E 04:14:17 10° ESE visible
27 Feb 3.3 05:47:16 10° NNE 05:52:23 72° ESE 05:57:27 10° S visible
28 Feb 4.6 05:10:40 10° NNE 05:15:23 37° E 05:20:04 10° SSE visible
28 Feb 6.2 18:12:03 10° SW 18:15:20 17° W 18:18:39 10° NW visible
01 Mar 5.8 04:34:34 10° NE 04:38:11 19° E 04:41:48 10° SE visible
02 Mar 3.7 05:35:53 10° NNE 05:40:55 59° E 05:45:56 10° S visible
02 Mar 6.8 18:40:25 10° W 18:41:09 10° W 18:41:54 10° WNW visible
03 Mar 5.0 04:59:23 10° NNE 05:03:52 30° E 05:08:19 10° SSE visible
04 Mar 6.0 04:23:33 10° NE 04:26:37 16° E 04:29:40 10° ESE visible
04 Mar 3.1 06:01:14 10° NNE 06:06:22 88° W 06:11:27 10° SSW visible
05 Mar 4.1 05:24:30 10° NNE 05:29:27 48° E 05:34:21 10° S visible
05 Mar 6.5 18:27:14 10° WSW 18:29:32 13° W 18:31:51 10° WNW visible
06 Mar 5.4 04:48:09 10° NE 04:52:20 25° E 04:56:29 10° SSE visible
